Location: Baumgartsau
(48.4586°N, 14.0864°E)
Time: 17:35:28
(UTC+00:00)

STARLINK-1200 - Pass Details

Date: 09 April 2020
Orbit: 549 x 550 km, 53.0° (Epoch: 29 May)

Event Time Altitude Azimuth Distance (km) Brightness Sun altitude
Rises 19:30:45 0° 295° (WNW) 2,734 8.9 -16.6°
Reaches altitude 10° 19:33:00 10° 295° (WNW) 1,838 7.6 -16.9°
Maximum altitude 19:37:11 83° 208° (SSW) 564 3.6 -17.5°
Enters shadow 19:38:36 40° 125° (SE) 818 4.0 -17.7°
